Overview Statistics Trail Chart Weather Telemetry Raw packets
 

This is the latest recevied weather packets stored in our database for station/object N0HOT. If no packets are shown the sender has not sent any weather packets the latest 10 day(s).

<< 86 87 88 89 90 91 92 >>
Time Temp. Humidity Pressure Rain* Wind** Luminosity Snow
1788017893 20° C 83% 1015.3 hPa 0 mm - 124 W/m² -
1788017589 19.44° C 83% 1015.3 hPa 0 mm - 144 W/m² -
1788017285 19.44° C 84% 1015.3 hPa 0 mm - 117 W/m² -
1788016982 18.89° C 85% 1015.3 hPa 0 mm - 124 W/m² -
1788016680 18.89° C 86% 1015.6 hPa 0 mm - 132 W/m² -
1788016379 18.89° C 87% 1015.6 hPa 0 mm - 307 W/m² -
1788016078 18.89° C 87% 1015.6 hPa 0 mm - 129 W/m² -
1788015777 18.89° C 87% 1015.6 hPa 0 mm - 85 W/m² -
1788015473 18.89° C 87% 1016 hPa 0 mm - 89 W/m² -
1788015168 18.89° C 88% 1016 hPa 0 mm - 62 W/m² -
1788014866 18.89° C 88% 1016 hPa 0 mm - 52 W/m² -
1788014560 18.33° C 88% 1016 hPa 0 mm - 69 W/m² -
1788014255 18.33° C 88% 1016 hPa 0 mm - 86 W/m² -
1788013950 18.33° C 88% 1016 hPa 0 mm - 98 W/m² -
1788013645 18.33° C 88% 1016 hPa 0 mm - 93 W/m² -
1788013340 18.33° C 88% 1016.7 hPa 0 mm - 105 W/m² -
1788013040 18.33° C 88% 1016.7 hPa 0 mm - 75 W/m² -
1788012739 18.33° C 88% 1016.7 hPa 0 mm - 72 W/m² -
1788012446 18.33° C 88% 1016.7 hPa 0 mm - 23 W/m² -
1788012134 18.33° C 88% 1016.7 hPa 0 mm - 22 W/m² -
1788011834 18.33° C 88% 1017 hPa 0 mm - 27 W/m² -
1788011532 17.78° C 88% 1017.3 hPa 0 mm - 26 W/m² -
1788011228 17.78° C 88% 1017.3 hPa 0 mm - 35 W/m² -
1788010927 17.78° C 88% 1017.8 hPa 1.78 mm - 51 W/m² -
1788010622 17.78° C 88% 1017.3 hPa 1.78 mm - 54 W/m² -

* Rain latest hour (hover to see other rain measurements)
** Current wind speed in m/s (hover to see current wind gust speed)